Muscle Shoals, AL

10:51 PM CDT on July 23, 2016 (GMT -0500)
Northwest Alabama Regional

Weather History for KMSL - February, 2014

Change the Weather History Date:

Wednesday, February 26, 2014

  Actual Average Record
Temperature  
Mean Temperature 35 °F 48 °F  
Max Temperature 42 °F 59 °F 80 °F (1918)
Min Temperature 27 °F 38 °F 14 °F (1894)
Degree Days  
Heating Degree Days 30 17  
Month to date heating degree days 544 522  
Since 1 July heating degree days 2717 2502  
Cooling Degree Days 0 0  
Month to date cooling degree days 0 0  
Year to date cooling degree days 0 0  
Moisture  
Dew Point 14 °F    
Average Humidity 41    
Maximum Humidity 56    
Minimum Humidity 25    
Precipitation  
Precipitation 0.00 in 0.17 in 2.63 in (1987)
Month to date precipitation 3.90 4.32  
Year to date precipitation 5.60 8.93  
Snow  
Snow 0.00 in - - ()
Month to date snowfall 1.4  
Since 1 July snowfall 1.4  
Snow Depth 0.00 in    
Sea Level Pressure  
Sea Level Pressure 30.09 in    
Wind  
Wind Speed 10 mph (North)    
Max Wind Speed 20 mph    
Max Gust Speed 28 mph    
Visibility 10 miles    
Events      
T = Trace of Precipitation, MM = Missing Value Source: NWS Daily Summary

Daily Weather History Graph

Daily Weather History Graph

Search for Another Location

Airport or City:

Trip Planner

Search our weather history database for the weather conditions in past years. The results will help you decide how hot, cold, wet, or windy it might be!

Date:

Astronomy

Feb. 26, 2014 Rise Set
Actual Time 6:23 AM CST 5:43 PM CST
Civil Twilight 5:57 AM CST 6:09 PM CST
Nautical Twilight 5:28 AM CST 6:38 PM CST
Astronomical Twilight 4:59 AM CST 7:07 PM CST
Moon 4:03 AM CST (2/26) 3:02 PM CST (2/26)
Length of Visible Light 12h 11m
Length of Day
11h 20m
Waning Crescent, 10% of the Moon is Illuminated
Feb 26
Waning Crescent
Mar 1
New
Mar 8
First Quarter
Mar 16
Full
Mar 23
Last Quarter

Hourly Weather History & Observations

Time (CST) Temp. Windchill Dew Point Humidity Pressure Visibility Wind Dir Wind Speed Gust Speed Precip Events Conditions
12:53 AM 41.0 °F 34.7 °F 24.1 °F 51% 30.06 in 10.0 mi NNE 10.4 mph - N/A   Overcast
1:53 AM 39.0 °F 31.8 °F 21.9 °F 50% 30.07 in 10.0 mi NNE 11.5 mph 19.6 mph N/A   Overcast
2:53 AM 37.0 °F 28.9 °F 21.9 °F 54% 30.08 in 10.0 mi North 12.7 mph 20.7 mph N/A   Overcast
3:53 AM 35.1 °F 25.9 °F 19.0 °F 52% 30.11 in 10.0 mi North 13.8 mph 21.9 mph N/A   Overcast
4:53 AM 33.1 °F 23.0 °F 19.0 °F 56% 30.14 in 10.0 mi North 15.0 mph 24.2 mph N/A   Overcast
5:53 AM 32.0 °F 23.0 °F 17.1 °F 54% 30.14 in 10.0 mi North 11.5 mph 19.6 mph N/A   Overcast
6:53 AM 32.0 °F 25.6 °F 18.0 °F 56% 30.14 in 10.0 mi North 6.9 mph - N/A   Overcast
7:53 AM 30.9 °F 22.8 °F 18.0 °F 59% 30.15 in 10.0 mi North 9.2 mph - N/A   Partly Cloudy
8:38 AM 32.0 °F 24.2 °F 17.6 °F 55% 30.16 in 10.0 mi NNE 9.2 mph 17.3 mph N/A   Mostly Cloudy
8:53 AM 32.0 °F 24.2 °F 18.0 °F 56% 30.16 in 10.0 mi North 9.2 mph - N/A   Overcast
9:26 AM 32.0 °F 23.0 °F 17.6 °F 55% 30.15 in 10.0 mi NNE 11.5 mph 20.7 mph N/A   Scattered Clouds
9:53 AM 32.0 °F 24.8 °F 17.1 °F 54% 30.17 in 10.0 mi NNE 8.1 mph 16.1 mph N/A   Mostly Cloudy
10:53 AM 35.1 °F 26.9 °F 18.0 °F 50% 30.14 in 10.0 mi North 11.5 mph 19.6 mph N/A   Scattered Clouds
11:53 AM 37.0 °F 29.8 °F 17.1 °F 44% 30.11 in 10.0 mi North 10.4 mph 20.7 mph N/A   Clear
12:53 PM 39.0 °F 31.0 °F 16.0 °F 39% 30.08 in 10.0 mi NNE 13.8 mph 20.7 mph N/A   Clear
1:53 PM 39.9 °F 32.9 °F 12.9 °F 33% 30.04 in 10.0 mi North 11.5 mph 17.3 mph N/A   Clear
2:53 PM 41.0 °F 37.1 °F 9.0 °F 27% 30.03 in 10.0 mi North 5.8 mph 16.1 mph N/A   Clear
3:53 PM 41.0 °F 34.7 °F 8.1 °F 26% 30.03 in 10.0 mi NNW 10.4 mph - N/A   Clear
4:53 PM 39.0 °F 33.4 °F 7.0 °F 27% 30.03 in 10.0 mi NNW 8.1 mph 17.3 mph N/A   Clear
5:53 PM 36.0 °F 30.3 °F 6.1 °F 29% 30.04 in 10.0 mi NW 6.9 mph - N/A   Clear
6:53 PM 34.0 °F 26.6 °F 7.0 °F 32% 30.05 in 10.0 mi NNW 9.2 mph - N/A   Clear
7:53 PM 30.9 °F 24.3 °F 8.1 °F 38% 30.06 in 10.0 mi NW 6.9 mph - N/A   Clear
8:53 PM 30.0 °F 23.2 °F 6.1 °F 36% 30.07 in 10.0 mi NNW 6.9 mph - N/A   Clear
9:53 PM 28.9 °F 22.8 °F 7.0 °F 40% 30.08 in 10.0 mi NNW 5.8 mph - N/A   Clear
10:53 PM 28.0 °F 20.0 °F 9.0 °F 45% 30.09 in 10.0 mi NW 8.1 mph - N/A   Clear
11:53 PM 27.0 °F 20.5 °F 9.0 °F 47% 30.09 in 10.0 mi NNW 5.8 mph - N/A   Clear